TimeCST,TemperatureF,Dew PointF,Humidity,Sea Level PressureIn,VisibilityMPH,Wind Direction,Wind SpeedMPH,Gust SpeedMPH,PrecipitationIn,Events,Conditions,WindDirDegrees,DateUTC
12:15 AM,18.0,12.6,79,29.97,10.0,NE,4.6,-,N/A,,Clear,50,2012-12-14 06:15:00
12:35 AM,19.0,13.6,79,29.96,10.0,East,3.5,-,N/A,,Clear,90,2012-12-14 06:35:00
12:55 AM,20.1,13.6,76,29.95,10.0,ENE,3.5,-,N/A,,Clear,70,2012-12-14 06:55:00
1:15 AM,20.1,14.4,78,29.94,10.0,Calm,Calm,-,N/A,,Clear,0,2012-12-14 07:15:00
1:35 AM,17.1,11.3,78,29.94,10.0,WNW,5.8,-,N/A,,Clear,300,2012-12-14 07:35:00
1:55 AM,18.1,12.9,80,29.93,10.0,Calm,Calm,-,N/A,,Clear,0,2012-12-14 07:55:00
2:15 AM,16.7,11.5,80,29.92,10.0,Calm,Calm,-,N/A,,Clear,0,2012-12-14 08:15:00
2:35 AM,16.2,11.5,82,29.91,10.0,NE,3.5,-,N/A,,Clear,40,2012-12-14 08:35:00
2:55 AM,16.0,10.6,79,29.91,10.0,Calm,Calm,-,N/A,,Clear,0,2012-12-14 08:55:00
3:15 AM,15.3,9.9,79,29.91,10.0,Calm,Calm,-,N/A,,Clear,0,2012-12-14 09:15:00
3:35 AM,14.4,9.0,79,29.90,10.0,Calm,Calm,-,N/A,,Clear,0,2012-12-14 09:35:00
3:55 AM,15.6,10.6,80,29.89,7.0,Calm,Calm,-,N/A,,Clear,0,2012-12-14 09:55:00
4:15 AM,15.4,10.2,80,29.89,10.0,WNW,3.5,-,N/A,,Clear,300,2012-12-14 10:15:00
4:35 AM,15.3,11.3,84,29.88,10.0,NNW,5.8,-,N/A,,Clear,330,2012-12-14 10:35:00
4:55 AM,13.6,9.7,84,29.87,10.0,NNW,3.5,-,N/A,,Clear,330,2012-12-14 10:55:00
5:15 AM,13.8,9.7,84,29.87,10.0,NW,3.5,-,N/A,,Clear,310,2012-12-14 11:15:00
5:35 AM,12.9,8.8,84,29.88,5.0,West,8.1,-,N/A,,Clear,280,2012-12-14 11:35:00
5:55 AM,14.0,10.0,84,29.89,10.0,West,5.8,-,N/A,,Clear,280,2012-12-14 11:55:00
6:15 AM,14.0,10.2,85,29.87,10.0,WNW,5.8,-,N/A,,Clear,290,2012-12-14 12:15:00
6:35 AM,12.7,9.0,85,29.86,10.0,Calm,Calm,-,N/A,,Clear,0,2012-12-14 12:35:00
6:55 AM,13.1,9.0,84,29.85,10.0,NW,5.8,-,N/A,,Clear,310,2012-12-14 12:55:00
7:15 AM,12.0,8.1,84,29.85,7.0,WNW,6.9,-,N/A,,Clear,300,2012-12-14 13:15:00
7:35 AM,12.2,8.2,84,29.83,7.0,NW,6.9,-,N/A,,Clear,320,2012-12-14 13:35:00
7:55 AM,12.4,8.6,85,29.83,7.0,West,3.5,-,N/A,,Clear,280,2012-12-14 13:55:00
8:15 AM,13.1,9.1,84,29.83,5.0,WNW,4.6,-,N/A,,Clear,290,2012-12-14 14:15:00
8:35 AM,14.5,10.6,84,29.83,7.0,WNW,5.8,-,N/A,,Clear,290,2012-12-14 14:35:00
8:55 AM,17.2,12.2,81,29.83,7.0,Calm,Calm,-,N/A,,Clear,0,2012-12-14 14:55:00
9:15 AM,20.5,14.4,77,29.83,10.0,Calm,Calm,-,N/A,,Clear,0,2012-12-14 15:15:00
9:35 AM,23.7,16.5,74,29.83,7.0,East,3.5,-,N/A,,Clear,100,2012-12-14 15:35:00
9:55 AM,26.6,18.5,71,29.84,10.0,South,6.9,-,N/A,,Clear,180,2012-12-14 15:55:00
10:15 AM,28.8,20.3,71,29.81,7.0,NE,4.6,-,N/A,,Clear,50,2012-12-14 16:15:00
10:35 AM,31.3,21.7,68,29.80,10.0,East,5.8,-,N/A,,Clear,90,2012-12-14 16:35:00
10:55 AM,32.0,22.5,68,29.80,10.0,East,3.5,-,N/A,,Clear,100,2012-12-14 16:55:00
11:15 AM,33.1,22.6,66,29.80,10.0,NE,6.9,-,N/A,,Clear,40,2012-12-14 17:15:00
11:35 AM,34.7,23.0,62,29.79,10.0,SE,8.1,-,N/A,,Clear,130,2012-12-14 17:35:00
11:55 AM,35.2,22.6,60,29.77,10.0,SE,5.8,-,N/A,,Clear,140,2012-12-14 17:55:00
12:15 PM,36.1,22.1,57,29.75,10.0,ESE,3.5,-,N/A,,Clear,110,2012-12-14 18:15:00
12:35 PM,37.4,21.9,54,29.73,10.0,SSE,4.6,-,N/A,,Clear,150,2012-12-14 18:35:00
12:55 PM,39.0,21.9,50,29.71,10.0,SE,4.6,-,N/A,,Clear,140,2012-12-14 18:55:00
1:15 PM,40.8,21.7,47,29.70,10.0,SSE,5.8,-,N/A,,Clear,160,2012-12-14 19:15:00
1:35 PM,41.9,21.0,43,29.69,10.0,SE,6.9,-,N/A,,Clear,140,2012-12-14 19:35:00
1:55 PM,43.0,20.8,41,29.68,10.0,SE,9.2,-,N/A,,Clear,140,2012-12-14 19:55:00
2:15 PM,44.4,19.8,37,29.68,10.0,SSE,15.0,19.6,N/A,,Scattered Clouds,160,2012-12-14 20:15:00
2:35 PM,42.1,18.5,39,29.67,10.0,SSE,10.4,-,N/A,,Mostly Cloudy,150,2012-12-14 20:35:00
2:55 PM,40.5,19.0,42,29.66,10.0,SSE,11.5,-,N/A,,Overcast,160,2012-12-14 20:55:00
3:15 PM,40.3,19.4,43,29.66,10.0,SSW,4.6,-,N/A,,Overcast,200,2012-12-14 21:15:00
3:35 PM,40.5,19.4,43,29.66,10.0,SSE,6.9,-,N/A,,Overcast,160,2012-12-14 21:35:00
3:55 PM,40.6,20.3,44,29.67,10.0,SSE,11.5,-,N/A,,Mostly Cloudy,160,2012-12-14 21:55:00
4:15 PM,41.4,20.3,43,29.66,10.0,SSE,9.2,-,N/A,,Overcast,150,2012-12-14 22:15:00
4:35 PM,41.2,20.3,43,29.66,10.0,South,3.5,-,N/A,,Mostly Cloudy,180,2012-12-14 22:35:00
4:55 PM,41.0,20.7,44,29.65,10.0,Calm,Calm,-,N/A,,Overcast,0,2012-12-14 22:55:00
5:15 PM,40.6,21.0,46,29.64,10.0,Calm,Calm,-,N/A,,Overcast,0,2012-12-14 23:15:00
5:35 PM,40.5,23.7,51,29.62,10.0,ESE,3.5,-,N/A,,Overcast,120,2012-12-14 23:35:00
5:55 PM,40.3,23.5,51,29.62,10.0,Calm,Calm,-,N/A,,Overcast,0,2012-12-14 23:55:00
6:15 PM,39.2,23.5,53,29.59,10.0,NE,8.1,-,N/A,Rain,Light Rain,40,2012-12-15 00:15:00
6:35 PM,39.0,33.1,79,29.55,10.0,East,12.7,-,0.01,Rain,Light Rain,100,2012-12-15 00:35:00
6:55 PM,41.5,36.7,83,29.57,10.0,SE,9.2,18.4,0.01,,Light Drizzle,130,2012-12-15 00:55:00
7:15 PM,42.6,38.1,84,29.55,10.0,ESE,6.9,-,N/A,,Light Drizzle,120,2012-12-15 01:15:00
7:35 PM,42.8,38.7,85,29.56,10.0,WNW,3.5,-,N/A,,Overcast,300,2012-12-15 01:35:00
7:55 PM,39.2,35.2,86,29.56,10.0,WNW,5.8,-,N/A,,Overcast,300,2012-12-15 01:55:00
8:15 PM,39.2,35.6,87,29.56,10.0,NW,3.5,-,N/A,,Overcast,310,2012-12-15 02:15:00
8:35 PM,39.2,35.6,87,29.55,10.0,North,4.6,-,N/A,,Overcast,360,2012-12-15 02:35:00
8:55 PM,39.2,36.0,88,29.53,10.0,NNE,3.5,-,N/A,,Overcast,30,2012-12-15 02:55:00
9:15 PM,39.7,37.2,91,29.52,7.0,NE,3.5,-,N/A,,Light Drizzle,40,2012-12-15 03:15:00
9:35 PM,39.6,37.6,93,29.52,7.0,NNW,3.5,-,N/A,,Overcast,330,2012-12-15 03:35:00
9:55 PM,39.2,37.4,93,29.51,5.0,WNW,4.6,-,N/A,,Drizzle,290,2012-12-15 03:55:00
10:15 PM,37.6,36.0,94,29.50,3.0,West,4.6,-,0.01,,Heavy Drizzle,280,2012-12-15 04:15:00
10:35 PM,37.0,35.6,95,29.50,3.0,West,4.6,-,0.02,,Drizzle,270,2012-12-15 04:35:00
10:55 PM,36.5,35.2,95,29.49,2.5,WNW,4.6,-,0.02,,Heavy Drizzle,290,2012-12-15 04:55:00
11:15 PM,36.5,35.6,97,29.48,1.8,Calm,Calm,-,0.02,,Heavy Drizzle,0,2012-12-15 05:15:00
11:35 PM,37.0,36.0,96,29.47,2.0,WNW,5.8,-,0.03,Rain,Heavy Rain,290,2012-12-15 05:35:00
11:55 PM,37.6,36.5,96,29.46,2.0,WNW,6.9,-,0.04,,Drizzle,290,2012-12-15 05:55:00